フィッツシモンズ彗星

C/2018 X2 ( Fitzsimmons )

English version
Home page
Updated on February 9, 2019

---------------------------------------------------------------------

・ プロフィール

発見日 2018年12月8日
発見光度 19.1等
発見者 Alan Fitzsimmons (Asteroid Terrestrial-impact Last Alert System (ATLAS) search program)

・ 写真集

・ 軌道要素

Epoch 2019 July 16.0 TT = JDT 2458680.5
T 2019 July 8.56916 TT                                  MPCW
q   2.1271948            (2000.0)            P               Q
z  +0.0072899      Peri.  161.99685     -0.80511215     -0.57902693
 +/-0.0007642      Node   340.84824     +0.48454890     -0.51711863
e   0.9844929      Incl.   23.06664     +0.34206256     -0.63033018
From 86 observations 2018 Dec. 8-24, mean residual 0".5.

・ 星図

・ 光度変化

        m1 = 11.5 + 5 logΔ + 10.0 log r

---------------------------------------------------------------------

軌道要素はM.P.E.C. 2018-Y70に掲載されたものです。
星図はステラナビゲータ Ver.10 (アストロアーツ) で作成したものです。
光度グラフはComet for Windowsで作成したものです。

---------------------------------------------------------------------

Copyright(C) Seiichi Yoshida (comet@aerith.net). All rights reserved.